Location: Wald
(31.7579°N, 86.6655°W)
Time: 11:51:17
(UTC+00:00)

Cosmos 1833 - Pass Details

Date: 14 July 2020
Orbit: 837 x 861 km, 70.9° (Epoch: 08 August)

Event Time Altitude Azimuth Distance (km) Brightness Sun altitude
Exits shadow 09:54:11 - 197° (SSW) 2,680 6.3 -11.4°
Reaches altitude 10° 09:54:48 10° 197° (SSW) 2,444 6.1 -11.3°
Maximum altitude 10:00:25 86° 110° (ESE) 843 4.2 -10.3°
Drops below altitude 10° 10:06:03 10° 21° (NNE) 2,453 7.5 -9.3°
Sets 10:08:30 0° 21° (NNE) 3,391 8.3 -8.8°
